Time,TemperatureF,DewpointF,PressureIn,WindDirection,WindDirectionDegrees,WindSpeedMPH,WindSpeedGustMPH,Humidity,HourlyPrecipIn,Conditions,Clouds,dailyrainin,SoftwareType,DateUTC
2013-03-05 00:00:00,42.2,24.9,30.03,West,264,7.0,7.0,50,14.40,,,99.99,Wunderground v.1.15,2013-03-05 05:00:00,
2013-03-05 00:01:00,42.3,25.0,30.03,WSW,254,0.0,7.0,50,14.40,,,99.99,Wunderground v.1.15,2013-03-05 05:01:00,
2013-03-05 00:06:00,42.3,25.0,30.04,WSW,241,0.0,3.0,50,14.40,,,99.99,Wunderground v.1.15,2013-03-05 05:06:00,
2013-03-05 00:12:00,42.2,24.9,30.04,SW,223,0.0,3.0,50,15.16,,,99.99,Wunderground v.1.15,2013-03-05 05:12:00,
2013-03-05 00:17:00,42.1,24.8,30.04,SSW,200,0.0,0.0,50,15.16,,,99.99,Wunderground v.1.15,2013-03-05 05:17:00,
2013-03-05 00:23:00,41.5,24.7,30.02,WSW,246,0.0,0.0,51,15.16,,,99.99,Wunderground v.1.15,2013-03-05 05:23:00,
2013-03-05 00:28:00,40.8,24.5,30.02,SSW,210,0.0,0.0,52,14.40,,,99.99,Wunderground v.1.15,2013-03-05 05:28:00,
2013-03-05 00:33:00,40.6,24.3,30.03,SSW,209,0.0,5.0,52,14.40,,,99.99,Wunderground v.1.15,2013-03-05 05:33:00,
2013-03-05 00:39:00,40.5,24.7,30.03,SW,216,1.0,2.0,53,15.16,,,99.99,Wunderground v.1.15,2013-03-05 05:39:00,
2013-03-05 00:46:00,40.6,24.3,30.03,SSW,198,0.0,1.0,52,15.16,,,99.99,Wunderground v.1.15,2013-03-05 05:46:00,
2013-03-05 00:51:00,40.8,24.5,30.03,SSW,212,0.0,2.0,52,15.16,,,99.99,Wunderground v.1.15,2013-03-05 05:51:00,
2013-03-05 00:56:00,40.3,24.5,30.03,SW,215,0.0,1.0,53,15.16,,,99.99,Wunderground v.1.15,2013-03-05 05:56:00,
2013-03-05 01:01:00,40.5,24.2,30.03,SSW,198,0.0,2.0,52,15.16,,,-99.99,Wunderground v.1.15,2013-03-05 06:01:00,
2013-03-05 01:07:00,40.2,24.4,30.03,SSW,208,0.0,1.0,53,15.16,,,-99.99,Wunderground v.1.15,2013-03-05 06:07:00,
2013-03-05 01:12:00,40.3,25.0,30.03,SSW,198,3.0,4.0,54,15.16,,,-99.99,Wunderground v.1.15,2013-03-05 06:12:00,
2013-03-05 01:18:00,40.6,24.8,30.01,South,174,0.0,5.0,53,14.40,,,-99.99,Wunderground v.1.15,2013-03-05 06:18:00,
2013-03-05 01:26:00,40.6,24.8,30.01,South,191,0.0,5.0,53,14.40,,,-99.99,Wunderground v.1.15,2013-03-05 06:26:00,
2013-03-05 01:31:00,40.5,25.1,30.01,SSW,209,0.0,0.0,54,15.16,,,-99.99,Wunderground v.1.15,2013-03-05 06:31:00,
2013-03-05 01:36:00,40.3,25.0,30.02,SSW,193,0.0,0.0,54,15.16,,,-99.99,Wunderground v.1.15,2013-03-05 06:36:00,
2013-03-05 01:41:00,40.5,25.1,30.02,South,189,0.0,0.0,54,15.16,,,-99.99,Wunderground v.1.15,2013-03-05 06:41:00,
2013-03-05 01:47:00,40.6,25.2,30.02,South,181,0.0,0.0,54,15.16,,,-99.99,Wunderground v.1.15,2013-03-05 06:47:00,
2013-03-05 01:52:00,41.1,25.3,30.01,SSW,192,4.0,4.0,53,15.16,,,-99.99,Wunderground v.1.15,2013-03-05 06:52:00,
2013-03-05 01:57:00,40.9,25.5,30.01,South,189,0.0,0.0,54,15.16,,,-99.99,Wunderground v.1.15,2013-03-05 06:57:00,
2013-03-05 02:03:00,40.8,25.4,30.00,South,191,0.0,3.0,54,14.40,,,-99.99,Wunderground v.1.15,2013-03-05 07:03:00,
2013-03-05 02:08:00,40.8,25.4,30.00,SSW,196,1.0,1.0,54,15.16,,,1.27,Wunderground v.1.15,2013-03-05 07:08:00,
2013-03-05 02:13:00,40.6,25.2,30.00,SSW,212,3.0,3.0,54,14.40,,,2.18,Wunderground v.1.15,2013-03-05 07:13:00,
2013-03-05 02:19:00,40.6,25.7,29.99,SSW,196,0.0,3.0,55,14.40,,,3.73,Wunderground v.1.15,2013-03-05 07:19:00,
2013-03-05 02:24:00,40.8,25.9,29.99,SSW,209,1.0,3.0,55,14.40,,,5.04,Wunderground v.1.15,2013-03-05 07:24:00,
2013-03-05 02:29:00,41.1,25.7,29.99,SSW,198,0.0,2.0,54,14.40,,,6.19,Wunderground v.1.15,2013-03-05 07:29:00,
2013-03-05 02:36:00,41.5,25.6,29.99,SSW,193,0.0,0.0,53,14.40,,,7.94,Wunderground v.1.15,2013-03-05 07:36:00,
2013-03-05 02:41:00,41.5,25.6,29.99,SSW,192,0.0,0.0,53,14.40,,,9.17,Wunderground v.1.15,2013-03-05 07:41:00,
2013-03-05 02:46:00,41.5,25.6,29.99,ESE,121,0.0,0.0,53,14.40,,,10.40,Wunderground v.1.15,2013-03-05 07:46:00,
2013-03-05 02:51:00,41.6,25.7,29.96,ESE,120,0.0,0.0,53,15.16,,,11.63,Wunderground v.1.15,2013-03-05 07:51:00,
2013-03-05 02:57:00,41.8,25.9,29.96,SSW,193,0.0,0.0,53,15.16,,,12.78,Wunderground v.1.15,2013-03-05 07:57:00,
2013-03-05 03:02:00,41.9,26.0,29.96,SW,215,0.0,0.0,53,15.16,,,14.05,Wunderground v.1.15,2013-03-05 08:02:00,
2013-03-05 03:07:00,42.1,26.2,29.97,SSW,203,0.0,0.0,53,14.40,,,15.28,Wunderground v.1.15,2013-03-05 08:07:00,
2013-03-05 03:12:00,42.1,26.2,29.97,SW,219,0.0,0.0,53,14.40,,,16.55,Wunderground v.1.15,2013-03-05 08:12:00,
2013-03-05 03:17:00,42.2,26.3,29.96,SSW,210,0.0,0.0,53,15.16,,,17.74,Wunderground v.1.15,2013-03-05 08:17:00,
2013-03-05 03:23:00,42.2,25.8,29.96,SSW,210,0.0,0.0,52,15.16,,,19.05,Wunderground v.1.15,2013-03-05 08:23:00,
2013-03-05 03:28:00,42.2,25.8,29.96,SSW,192,0.0,0.0,52,14.40,,,20.20,Wunderground v.1.15,2013-03-05 08:28:00,
2013-03-05 03:33:00,42.2,26.3,29.96,SSW,192,0.0,0.0,53,14.40,,,21.51,Wunderground v.1.15,2013-03-05 08:33:00,
2013-03-05 03:38:00,42.2,26.3,29.96,SSW,192,0.0,0.0,53,14.40,,,22.74,Wunderground v.1.15,2013-03-05 08:38:00,
2013-03-05 03:43:00,42.5,26.1,29.96,South,191,0.0,0.0,52,15.16,,,23.93,Wunderground v.1.15,2013-03-05 08:43:00,
2013-03-05 03:48:00,42.6,26.2,29.95,South,191,0.0,0.0,52,15.16,,,25.16,Wunderground v.1.15,2013-03-05 08:48:00,
2013-03-05 03:54:00,42.6,26.6,29.95,South,191,0.0,0.0,53,15.16,,,26.39,Wunderground v.1.15,2013-03-05 08:54:00,
2013-03-05 03:59:00,42.6,26.6,29.95,South,191,0.0,0.0,53,14.40,,,27.58,Wunderground v.1.15,2013-03-05 08:59:00,
2013-03-05 04:06:00,42.6,26.6,29.95,South,184,0.0,0.0,53,14.40,,,29.33,Wunderground v.1.15,2013-03-05 09:06:00,
2013-03-05 04:11:00,42.8,26.8,29.95,South,178,0.0,0.0,53,14.40,,,30.60,Wunderground v.1.15,2013-03-05 09:11:00,
2013-03-05 04:16:00,42.6,26.6,29.95,South,185,0.0,0.0,53,14.40,,,31.75,Wunderground v.1.15,2013-03-05 09:16:00,
2013-03-05 04:21:00,42.5,27.0,29.94,South,186,0.0,0.0,54,15.16,,,33.02,Wunderground v.1.15,2013-03-05 09:21:00,
2013-03-05 04:27:00,42.3,26.8,29.94,South,188,2.0,2.0,54,15.16,,,34.17,Wunderground v.1.15,2013-03-05 09:27:00,
2013-03-05 04:32:00,42.2,27.2,29.94,SSW,202,0.0,2.0,55,15.16,,,35.40,Wunderground v.1.15,2013-03-05 09:32:00,
2013-03-05 04:37:00,42.2,27.2,29.95,SSW,195,0.0,1.0,55,15.16,,,36.67,Wunderground v.1.15,2013-03-05 09:37:00,
2013-03-05 04:42:00,42.2,27.2,29.95,SSW,209,0.0,1.0,55,15.16,,,37.90,Wunderground v.1.15,2013-03-05 09:42:00,
2013-03-05 04:47:00,42.2,27.2,29.95,SSW,209,0.0,0.0,55,14.40,,,39.17,Wunderground v.1.15,2013-03-05 09:47:00,
2013-03-05 04:52:00,42.3,27.3,29.95,SSW,202,0.0,4.0,55,14.40,,,40.40,Wunderground v.1.15,2013-03-05 09:52:00,
2013-03-05 04:57:00,42.3,27.3,29.95,SSW,196,0.0,0.0,55,14.40,,,41.51,Wunderground v.1.15,2013-03-05 09:57:00,
2013-03-05 05:02:00,42.5,27.5,29.94,SSW,208,0.0,0.0,55,15.16,,,42.82,Wunderground v.1.15,2013-03-05 10:02:00,
2013-03-05 05:08:00,42.3,27.3,29.94,SW,220,0.0,3.0,55,15.16,,,44.01,Wunderground v.1.15,2013-03-05 10:08:00,
2013-03-05 05:13:00,42.3,27.7,29.94,SSW,209,0.0,3.0,56,15.16,,,45.24,Wunderground v.1.15,2013-03-05 10:13:00,
2013-03-05 05:18:00,42.2,28.0,29.95,SW,215,0.0,0.0,57,14.40,,,46.43,Wunderground v.1.15,2013-03-05 10:18:00,
2013-03-05 05:23:00,42.1,29.6,29.95,SSW,206,0.0,0.0,61,15.16,,,47.74,Wunderground v.1.15,2013-03-05 10:23:00,
2013-03-05 05:28:00,41.9,29.8,29.95,SSW,202,0.0,1.0,62,15.16,,,48.93,Wunderground v.1.15,2013-03-05 10:28:00,
2013-03-05 05:34:00,41.8,30.1,29.94,SSW,209,0.0,0.0,63,15.16,,,50.16,Wunderground v.1.15,2013-03-05 10:34:00,
2013-03-05 05:39:00,41.8,29.7,29.94,SSW,193,0.0,0.0,62,14.40,,,51.39,Wunderground v.1.15,2013-03-05 10:39:00,
2013-03-05 05:46:00,41.8,29.3,29.94,SSW,203,0.0,0.0,61,15.16,,,53.18,Wunderground v.1.15,2013-03-05 10:46:00,
2013-03-05 05:51:00,41.8,28.5,29.94,SSW,203,0.0,0.0,59,15.16,,,54.41,Wunderground v.1.15,2013-03-05 10:51:00,
2013-03-05 05:56:00,41.9,29.0,29.94,South,181,0.0,0.0,60,14.40,,,55.52,Wunderground v.1.15,2013-03-05 10:56:00,
2013-03-05 06:01:00,42.1,29.2,29.94,SSW,203,0.0,0.0,60,14.40,,,56.71,Wunderground v.1.15,2013-03-05 11:01:00,
2013-03-05 06:06:00,42.2,29.7,29.95,SSW,196,0.0,0.0,61,15.16,,,57.98,Wunderground v.1.15,2013-03-05 11:06:00,
2013-03-05 06:11:00,42.2,29.7,29.95,SSW,196,0.0,0.0,61,14.40,,,59.13,Wunderground v.1.15,2013-03-05 11:11:00,
2013-03-05 06:16:00,41.9,29.8,29.95,SSW,208,0.0,0.0,62,14.40,,,60.36,Wunderground v.1.15,2013-03-05 11:16:00,
2013-03-05 06:21:00,41.8,30.5,29.95,SW,215,0.0,1.0,64,15.16,,,61.55,Wunderground v.1.15,2013-03-05 11:21:00,
2013-03-05 06:27:00,41.6,31.8,29.95,SW,215,0.0,0.0,68,15.16,,,62.78,Wunderground v.1.15,2013-03-05 11:27:00,
2013-03-05 06:32:00,41.2,32.2,29.95,SSW,209,0.0,0.0,70,15.16,,,64.09,Wunderground v.1.15,2013-03-05 11:32:00,
2013-03-05 06:37:00,40.9,32.6,29.95,South,189,0.0,0.0,72,14.40,,,65.28,Wunderground v.1.15,2013-03-05 11:37:00,
2013-03-05 06:42:00,40.9,32.2,29.95,South,189,0.0,0.0,71,14.40,,,66.47,Wunderground v.1.15,2013-03-05 11:42:00,
2013-03-05 06:47:00,40.8,32.1,29.95,South,189,0.0,0.0,71,14.40,,,67.74,Wunderground v.1.15,2013-03-05 11:47:00,
2013-03-05 06:53:00,40.9,32.2,29.95,SW,230,0.0,0.0,71,15.16,,,68.98,Wunderground v.1.15,2013-03-05 11:53:00,
2013-03-05 06:58:00,40.9,32.2,29.95,SW,227,0.0,0.0,71,15.16,,,70.25,Wunderground v.1.15,2013-03-05 11:58:00,
2013-03-05 07:03:00,40.9,31.9,29.94,SW,227,0.0,0.0,70,14.40,,,71.44,Wunderground v.1.15,2013-03-05 12:03:00,
2013-03-05 07:08:00,40.9,31.9,29.94,SW,229,0.0,0.0,70,14.40,,,72.67,Wunderground v.1.15,2013-03-05 12:08:00,
2013-03-05 07:13:00,40.9,31.5,29.94,SW,229,0.0,0.0,69,14.40,,,73.90,Wunderground v.1.15,2013-03-05 12:13:00,
2013-03-05 07:18:00,40.9,32.6,29.94,SW,229,0.0,0.0,72,14.40,,,75.05,Wunderground v.1.15,2013-03-05 12:18:00,
2013-03-05 07:23:00,40.6,33.6,29.94,SW,226,1.0,2.0,76,15.16,,,76.28,Wunderground v.1.15,2013-03-05 12:23:00,
2013-03-05 07:28:00,40.2,34.2,29.94,SW,234,0.0,2.0,79,15.16,,,77.51,Wunderground v.1.15,2013-03-05 12:28:00,
2013-03-05 07:33:00,39.8,34.4,29.95,WSW,241,0.0,3.0,81,15.16,,,78.66,Wunderground v.1.15,2013-03-05 12:33:00,
2013-03-05 07:38:00,39.5,34.8,29.95,WSW,248,0.0,1.0,83,15.16,,,79.93,Wunderground v.1.15,2013-03-05 12:38:00,
2013-03-05 07:43:00,39.5,35.1,29.95,WSW,247,0.0,1.0,84,15.16,,,81.16,Wunderground v.1.15,2013-03-05 12:43:00,
2013-03-05 07:48:00,39.3,35.5,29.95,SW,227,0.0,0.0,86,15.16,,,82.35,Wunderground v.1.15,2013-03-05 12:48:00,
2013-03-05 07:54:00,39.2,35.7,29.95,SW,227,0.0,0.0,87,15.16,,,83.46,Wunderground v.1.15,2013-03-05 12:54:00,
2013-03-05 07:59:00,38.9,35.4,29.95,SSW,210,0.0,0.0,87,14.40,,,84.73,Wunderground v.1.15,2013-03-05 12:59:00,
2013-03-05 08:04:00,38.8,35.6,29.95,SSW,209,0.0,0.0,88,14.40,,,85.92,Wunderground v.1.15,2013-03-05 13:04:00,
2013-03-05 08:11:00,38.6,35.4,29.95,SSW,196,0.0,0.0,88,15.16,,,87.67,Wunderground v.1.15,2013-03-05 13:11:00,
2013-03-05 08:16:00,38.5,35.8,29.95,SSW,195,0.0,0.0,90,15.16,,,88.86,Wunderground v.1.15,2013-03-05 13:16:00,
2013-03-05 08:21:00,38.2,35.8,29.96,SW,216,0.0,0.0,91,15.16,,,90.05,Wunderground v.1.15,2013-03-05 13:21:00,
2013-03-05 08:26:00,38.0,35.9,29.96,SSW,203,0.0,0.0,92,15.16,,,91.28,Wunderground v.1.15,2013-03-05 13:26:00,
2013-03-05 08:32:00,37.8,36.0,29.96,South,188,0.0,0.0,93,15.16,,,92.51,Wunderground v.1.15,2013-03-05 13:32:00,
2013-03-05 08:37:00,37.6,35.8,29.95,South,182,0.0,0.0,93,15.16,,,93.74,Wunderground v.1.15,2013-03-05 13:37:00,
2013-03-05 08:42:00,37.6,35.8,29.95,South,184,0.0,0.0,93,15.16,,,95.05,Wunderground v.1.15,2013-03-05 13:42:00,
2013-03-05 08:47:00,37.6,35.8,29.95,South,174,0.0,0.0,93,14.40,,,96.24,Wunderground v.1.15,2013-03-05 13:47:00,
2013-03-05 08:52:00,37.8,36.0,29.96,South,169,0.0,0.0,93,14.40,,,97.47,Wunderground v.1.15,2013-03-05 13:52:00,
2013-03-05 08:57:00,37.8,36.0,29.96,South,169,0.0,0.0,93,15.16,,,98.74,Wunderground v.1.15,2013-03-05 13:57:00,
2013-03-05 09:03:00,37.9,36.1,29.95,SSE,150,0.0,0.0,93,15.16,,,99.93,Wunderground v.1.15,2013-03-05 14:03:00,
2013-03-05 09:08:00,37.9,36.1,29.95,SSE,165,0.0,0.0,93,15.16,,,99.99,Wunderground v.1.15,2013-03-05 14:08:00,
2013-03-05 09:13:00,37.6,35.8,29.95,SSE,165,0.0,0.0,93,15.16,,,99.99,Wunderground v.1.15,2013-03-05 14:13:00,
2013-03-05 09:18:00,37.6,35.8,29.95,South,175,1.0,2.0,93,15.16,,,99.99,Wunderground v.1.15,2013-03-05 14:18:00,
2013-03-05 09:23:00,37.8,36.2,29.95,SSW,210,0.0,4.0,94,14.40,,,99.99,Wunderground v.1.15,2013-03-05 14:23:00,
2013-03-05 09:28:00,37.9,36.6,29.95,SSE,162,0.0,3.0,95,14.40,,,99.99,Wunderground v.1.15,2013-03-05 14:28:00,
2013-03-05 09:33:00,38.2,36.9,29.94,South,172,0.0,3.0,95,14.40,,,99.99,Wunderground v.1.15,2013-03-05 14:33:00,
2013-03-05 09:38:00,38.5,37.5,29.94,South,174,0.0,0.0,96,14.40,,,99.99,Wunderground v.1.15,2013-03-05 14:38:00,
2013-03-05 09:43:00,38.8,37.8,29.94,South,171,0.0,0.0,96,15.16,,,99.99,Wunderground v.1.15,2013-03-05 14:43:00,
2013-03-05 09:48:00,38.9,37.9,29.93,SSE,154,0.0,0.0,96,15.16,,,99.99,Wunderground v.1.15,2013-03-05 14:48:00,
2013-03-05 09:53:00,39.1,38.1,29.93,South,178,0.0,0.0,96,15.16,,,99.99,Wunderground v.1.15,2013-03-05 14:53:00,
2013-03-05 09:59:00,39.1,38.1,29.93,SSE,165,0.0,0.0,96,15.16,,,99.99,Wunderground v.1.15,2013-03-05 14:59:00,
2013-03-05 10:04:00,39.2,38.4,29.92,South,172,0.0,0.0,97,14.40,,,99.99,Wunderground v.1.15,2013-03-05 15:04:00,
2013-03-05 10:09:00,39.2,38.4,29.92,SSE,167,0.0,0.0,97,14.40,,,99.99,Wunderground v.1.15,2013-03-05 15:09:00,
2013-03-05 10:14:00,39.3,38.5,29.92,SSE,167,0.0,0.0,97,15.16,,,99.99,Wunderground v.1.15,2013-03-05 15:14:00,
2013-03-05 10:19:00,39.3,38.5,29.92,ESE,106,0.0,0.0,97,15.16,,,99.99,Wunderground v.1.15,2013-03-05 15:19:00,
2013-03-05 10:26:00,39.3,38.5,29.92,ESE,107,0.0,0.0,97,14.40,,,99.99,Wunderground v.1.15,2013-03-05 15:26:00,
2013-03-05 10:31:00,39.6,39.1,29.92,ESE,109,0.0,0.0,98,14.40,,,99.99,Wunderground v.1.15,2013-03-05 15:31:00,
2013-03-05 10:36:00,39.8,39.3,29.92,ESE,114,0.0,0.0,98,14.40,,,99.99,Wunderground v.1.15,2013-03-05 15:36:00,
2013-03-05 10:42:00,39.9,39.4,29.92,ESE,112,0.0,0.0,98,15.16,,,99.99,Wunderground v.1.15,2013-03-05 15:42:00,
2013-03-05 10:47:00,40.1,39.6,29.92,ESE,112,0.0,0.0,98,15.16,,,99.99,Wunderground v.1.15,2013-03-05 15:47:00,
2013-03-05 10:52:00,40.3,39.8,29.91,ESE,112,0.0,0.0,98,15.16,,,99.99,Wunderground v.1.15,2013-03-05 15:52:00,
2013-03-05 10:57:00,40.5,40.0,29.91,ESE,112,0.0,0.0,98,14.40,,,99.99,Wunderground v.1.15,2013-03-05 15:57:00,
2013-03-05 11:02:00,40.6,40.3,29.90,ESE,112,0.0,0.0,99,14.40,,,99.99,Wunderground v.1.15,2013-03-05 16:02:00,
2013-03-05 11:07:00,40.8,40.5,29.90,East,95,0.0,0.0,99,14.40,,,99.99,Wunderground v.1.15,2013-03-05 16:07:00,
2013-03-05 11:12:00,40.9,40.6,29.90,East,99,0.0,0.0,99,15.16,,,99.99,Wunderground v.1.15,2013-03-05 16:12:00,
2013-03-05 11:17:00,41.2,40.9,29.89,East,99,0.0,0.0,99,15.16,,,99.99,Wunderground v.1.15,2013-03-05 16:17:00,
2013-03-05 11:23:00,41.2,40.9,29.89,South,171,0.0,0.0,99,15.16,,,99.99,Wunderground v.1.15,2013-03-05 16:23:00,
2013-03-05 11:28:00,41.3,41.0,29.89,South,171,0.0,0.0,99,15.16,,,99.99,Wunderground v.1.15,2013-03-05 16:28:00,
2013-03-05 11:33:00,41.5,41.2,29.88,South,171,0.0,0.0,99,15.16,,,99.99,Wunderground v.1.15,2013-03-05 16:33:00,
2013-03-05 11:38:00,41.6,41.6,29.88,East,100,0.0,0.0,100,14.40,,,99.99,Wunderground v.1.15,2013-03-05 16:38:00,
2013-03-05 11:43:00,41.9,41.9,29.88,ESE,102,0.0,0.0,100,14.40,,,99.99,Wunderground v.1.15,2013-03-05 16:43:00,
2013-03-05 11:48:00,42.2,42.2,29.87,ESE,102,0.0,0.0,100,14.40,,,99.99,Wunderground v.1.15,2013-03-05 16:48:00,
2013-03-05 11:53:00,42.3,42.3,29.87,East,100,0.0,0.0,100,14.40,,,99.99,Wunderground v.1.15,2013-03-05 16:53:00,
2013-03-05 11:58:00,42.5,42.5,29.87,ENE,76,0.0,0.0,100,15.16,,,99.99,Wunderground v.1.15,2013-03-05 16:58:00,
2013-03-05 12:03:00,42.6,42.6,29.85,ESE,123,0.0,0.0,100,15.16,,,99.99,Wunderground v.1.15,2013-03-05 17:03:00,
2013-03-05 12:09:00,42.8,42.8,29.85,ESE,107,0.0,0.0,100,15.16,,,99.99,Wunderground v.1.15,2013-03-05 17:09:00,
2013-03-05 12:14:00,43.5,43.5,29.85,SSW,192,0.0,0.0,100,15.16,,,99.99,Wunderground v.1.15,2013-03-05 17:14:00,
2013-03-05 12:19:00,44.3,44.3,29.85,SSW,213,0.0,5.0,100,15.16,,,99.99,Wunderground v.1.15,2013-03-05 17:19:00,
2013-03-05 12:24:00,45.1,45.1,29.85,WSW,258,0.0,0.0,100,14.40,,,99.99,Wunderground v.1.15,2013-03-05 17:24:00,
2013-03-05 12:29:00,45.7,45.7,29.85,SW,226,1.0,1.0,100,14.40,,,99.99,Wunderground v.1.15,2013-03-05 17:29:00,
2013-03-05 12:36:00,46.7,46.7,29.84,WSW,254,6.0,8.0,100,15.16,,,99.99,Wunderground v.1.15,2013-03-05 17:36:00,
2013-03-05 12:41:00,46.8,46.8,29.84,WSW,248,10.0,12.0,100,15.16,,,99.99,Wunderground v.1.15,2013-03-05 17:41:00,
2013-03-05 12:46:00,47.0,47.0,29.84,West,263,11.0,11.0,100,14.40,,,99.99,Wunderground v.1.15,2013-03-05 17:46:00,
2013-03-05 12:51:00,47.1,47.1,29.84,WSW,243,0.0,11.0,100,14.40,,,99.99,Wunderground v.1.15,2013-03-05 17:51:00,
2013-03-05 12:56:00,47.4,47.4,29.84,WSW,247,5.0,6.0,100,14.40,,,99.99,Wunderground v.1.15,2013-03-05 17:56:00,
2013-03-05 13:02:00,47.7,47.7,29.84,West,265,12.0,14.0,100,15.16,,,99.99,Wunderground v.1.15,2013-03-05 18:02:00,
2013-03-05 13:07:00,48.0,48.0,29.82,WSW,250,6.0,8.0,100,15.16,,,99.99,Wunderground v.1.15,2013-03-05 18:07:00,
2013-03-05 13:12:00,48.0,48.0,29.82,SW,217,5.0,12.0,100,15.16,,,99.99,Wunderground v.1.15,2013-03-05 18:12:00,
2013-03-05 13:17:00,48.0,47.5,29.81,SW,229,3.0,9.0,98,14.40,,,99.99,Wunderground v.1.15,2013-03-05 18:17:00,
2013-03-05 13:22:00,47.7,47.2,29.81,WSW,241,6.0,9.0,98,14.40,,,99.99,Wunderground v.1.15,2013-03-05 18:22:00,
2013-03-05 13:27:00,47.4,46.6,29.81,SW,224,2.0,8.0,97,14.40,,,99.99,Wunderground v.1.15,2013-03-05 18:27:00,
2013-03-05 13:32:00,47.7,46.9,29.80,West,270,5.0,13.0,97,14.40,,,99.99,Wunderground v.1.15,2013-03-05 18:32:00,
2013-03-05 13:37:00,47.7,46.9,29.80,SW,232,8.0,11.0,97,15.16,,,99.99,Wunderground v.1.15,2013-03-05 18:37:00,
2013-03-05 13:43:00,48.0,47.2,29.80,WSW,243,7.0,19.0,97,15.16,,,99.99,Wunderground v.1.15,2013-03-05 18:43:00,
2013-03-05 13:48:00,47.9,46.8,29.78,WSW,258,10.0,13.0,96,14.40,,,99.99,Wunderground v.1.15,2013-03-05 18:48:00,
2013-03-05 13:53:00,47.7,46.6,29.78,SW,227,6.0,13.0,96,14.40,,,99.99,Wunderground v.1.15,2013-03-05 18:53:00,
2013-03-05 13:58:00,47.7,46.9,29.78,SW,227,7.0,10.0,97,15.16,,,99.99,Wunderground v.1.15,2013-03-05 18:58:00,
2013-03-05 14:03:00,47.7,46.9,29.77,SW,232,0.0,18.0,97,15.16,,,99.99,Wunderground v.1.15,2013-03-05 19:03:00,
2013-03-05 14:08:00,47.7,46.9,29.77,SW,233,10.0,12.0,97,15.16,,,99.99,Wunderground v.1.15,2013-03-05 19:08:00,
2013-03-05 14:14:00,47.9,47.4,29.77,WSW,246,6.0,7.0,98,15.16,,,99.99,Wunderground v.1.15,2013-03-05 19:14:00,
2013-03-05 14:19:00,48.0,47.5,29.76,WSW,239,3.0,8.0,98,14.40,,,99.99,Wunderground v.1.15,2013-03-05 19:19:00,
2013-03-05 14:26:00,48.0,47.5,29.76,WSW,251,2.0,5.0,98,15.16,,,99.99,Wunderground v.1.15,2013-03-05 19:26:00,
2013-03-05 14:31:00,48.0,47.5,29.76,WSW,247,2.0,8.0,98,15.16,,,99.99,Wunderground v.1.15,2013-03-05 19:31:00,
2013-03-05 14:36:00,48.0,47.5,29.74,WSW,251,8.0,14.0,98,15.16,,,99.99,Wunderground v.1.15,2013-03-05 19:36:00,
2013-03-05 14:41:00,48.0,47.5,29.74,SW,230,2.0,17.0,98,15.16,,,99.99,Wunderground v.1.15,2013-03-05 19:41:00,
2013-03-05 14:46:00,48.2,47.7,29.74,SSW,210,5.0,13.0,98,14.40,,,99.99,Wunderground v.1.15,2013-03-05 19:46:00,
2013-03-05 14:52:00,48.5,48.0,29.72,WSW,256,5.0,16.0,98,15.16,,,99.99,Wunderground v.1.15,2013-03-05 19:52:00,
2013-03-05 14:57:00,48.6,48.1,29.72,WSW,240,4.0,6.0,98,15.16,,,99.99,Wunderground v.1.15,2013-03-05 19:57:00,
2013-03-05 15:02:00,48.8,48.3,29.72,West,264,8.0,16.0,98,15.16,,,99.99,Wunderground v.1.15,2013-03-05 20:02:00,
2013-03-05 15:07:00,48.9,48.1,29.70,West,264,10.0,14.0,97,15.16,,,99.99,Wunderground v.1.15,2013-03-05 20:07:00,
2013-03-05 15:12:00,48.8,48.0,29.70,SW,226,0.0,18.0,97,14.40,,,99.99,Wunderground v.1.15,2013-03-05 20:12:00,
2013-03-05 15:17:00,48.8,48.0,29.71,WSW,256,2.0,11.0,97,15.16,,,99.99,Wunderground v.1.15,2013-03-05 20:17:00,
2013-03-05 15:23:00,48.8,48.0,29.71,WSW,251,5.0,14.0,97,15.16,,,99.99,Wunderground v.1.15,2013-03-05 20:23:00,
2013-03-05 15:28:00,48.9,48.1,29.71,SW,229,12.0,12.0,97,15.16,,,99.99,Wunderground v.1.15,2013-03-05 20:28:00,
2013-03-05 15:33:00,48.9,47.8,29.70,WSW,246,3.0,13.0,96,15.16,,,99.99,Wunderground v.1.15,2013-03-05 20:33:00,
2013-03-05 15:38:00,48.9,47.8,29.70,WSW,246,3.0,7.0,96,15.16,,,99.99,Wunderground v.1.15,2013-03-05 20:38:00,
2013-03-05 15:43:00,48.9,48.1,29.70,WSW,257,6.0,12.0,97,15.16,,,99.99,Wunderground v.1.15,2013-03-05 20:43:00,
2013-03-05 15:49:00,48.9,48.1,29.68,WSW,239,7.0,10.0,97,15.16,,,99.99,Wunderground v.1.15,2013-03-05 20:49:00,
2013-03-05 15:54:00,48.3,47.2,29.68,SE,138,2.0,10.0,96,14.40,,,99.99,Wunderground v.1.15,2013-03-05 20:54:00,
2013-03-05 15:59:00,47.6,46.5,29.68,SSW,203,2.0,5.0,96,14.40,,,99.99,Wunderground v.1.15,2013-03-05 20:59:00,
2013-03-05 16:06:00,47.0,46.2,29.67,South,179,0.0,3.0,97,15.16,,,99.99,Wunderground v.1.15,2013-03-05 21:06:00,
2013-03-05 16:11:00,46.7,45.9,29.67,SSW,203,0.0,6.0,97,14.40,,,99.99,Wunderground v.1.15,2013-03-05 21:11:00,
2013-03-05 16:16:00,46.5,46.0,29.67,SSW,210,5.0,5.0,98,15.16,,,99.99,Wunderground v.1.15,2013-03-05 21:16:00,
2013-03-05 16:21:00,46.5,46.0,29.65,SW,217,8.0,12.0,98,14.40,,,99.99,Wunderground v.1.15,2013-03-05 21:21:00,
2013-03-05 16:26:00,46.7,46.4,29.65,West,265,3.0,5.0,99,14.40,,,99.99,Wunderground v.1.15,2013-03-05 21:26:00,
2013-03-05 16:32:00,46.8,46.5,29.65,SW,229,1.0,7.0,99,15.16,,,99.99,Wunderground v.1.15,2013-03-05 21:32:00,
2013-03-05 16:37:00,47.0,46.7,29.64,SSW,202,0.0,4.0,99,15.16,,,99.99,Wunderground v.1.15,2013-03-05 21:37:00,
2013-03-05 16:42:00,47.1,47.1,29.64,WSW,243,6.0,6.0,100,15.16,,,99.99,Wunderground v.1.15,2013-03-05 21:42:00,
2013-03-05 16:47:00,47.3,47.3,29.65,West,265,5.0,6.0,100,14.40,,,99.99,Wunderground v.1.15,2013-03-05 21:47:00,
2013-03-05 16:52:00,47.3,47.3,29.65,WSW,237,1.0,6.0,100,14.40,,,99.99,Wunderground v.1.15,2013-03-05 21:52:00,
2013-03-05 16:57:00,47.4,47.4,29.65,SW,220,10.0,12.0,100,15.16,,,99.99,Wunderground v.1.15,2013-03-05 21:57:00,
2013-03-05 17:03:00,47.4,47.4,29.64,South,182,0.0,12.0,100,15.16,,,99.99,Wunderground v.1.15,2013-03-05 22:03:00,
2013-03-05 17:08:00,47.4,47.4,29.64,SSW,199,5.0,6.0,100,14.40,,,99.99,Wunderground v.1.15,2013-03-05 22:08:00,
2013-03-05 17:13:00,47.3,47.3,29.64,SSW,206,2.0,7.0,100,14.40,,,99.99,Wunderground v.1.15,2013-03-05 22:13:00,
2013-03-05 17:18:00,47.3,47.3,29.66,WSW,243,3.0,5.0,100,14.40,,,99.99,Wunderground v.1.15,2013-03-05 22:18:00,
2013-03-05 17:24:00,47.3,47.3,29.66,West,270,3.0,3.0,100,15.16,,,99.99,Wunderground v.1.15,2013-03-05 22:24:00,
2013-03-05 17:29:00,47.3,47.3,29.66,ESE,117,0.0,3.0,100,14.40,,,99.99,Wunderground v.1.15,2013-03-05 22:29:00,
2013-03-05 17:34:00,47.4,47.4,29.67,SSW,200,0.0,1.0,100,14.40,,,99.99,Wunderground v.1.15,2013-03-05 22:34:00,
2013-03-05 17:39:00,47.4,47.4,29.67,West,261,10.0,10.0,100,15.16,,,99.99,Wunderground v.1.15,2013-03-05 22:39:00,
2013-03-05 17:44:00,47.6,47.6,29.67,WSW,243,0.0,3.0,100,14.40,,,99.99,Wunderground v.1.15,2013-03-05 22:44:00,
2013-03-05 17:49:00,47.6,47.6,29.66,WSW,248,7.0,7.0,100,15.16,,,99.99,Wunderground v.1.15,2013-03-05 22:49:00,
2013-03-05 17:56:00,47.9,47.9,29.66,SSW,198,0.0,1.0,100,15.16,,,99.99,Wunderground v.1.15,2013-03-05 22:56:00,
2013-03-05 18:01:00,48.0,48.0,29.66,West,274,0.0,4.0,100,15.16,,,99.99,Wunderground v.1.15,2013-03-05 23:01:00,
2013-03-05 18:06:00,48.0,48.0,29.64,WSW,241,0.0,1.0,100,15.16,,,99.99,Wunderground v.1.15,2013-03-05 23:06:00,
2013-03-05 18:11:00,48.0,48.0,29.64,NNW,328,5.0,18.0,100,15.16,,,99.99,Wunderground v.1.15,2013-03-05 23:11:00,
2013-03-05 18:16:00,47.7,47.2,29.64,West,275,2.0,6.0,98,14.40,,,99.99,Wunderground v.1.15,2013-03-05 23:16:00,
2013-03-05 18:21:00,47.3,45.9,29.65,West,267,1.0,9.0,95,14.40,,,99.99,Wunderground v.1.15,2013-03-05 23:21:00,
2013-03-05 18:26:00,46.8,44.9,29.65,East,92,0.0,2.0,93,14.40,,,99.99,Wunderground v.1.15,2013-03-05 23:26:00,
2013-03-05 18:32:00,46.5,44.0,29.65,WNW,292,1.0,10.0,91,15.16,,,99.99,Wunderground v.1.15,2013-03-05 23:32:00,
2013-03-05 18:37:00,46.8,43.4,29.66,WSW,248,7.0,7.0,88,15.16,,,99.99,Wunderground v.1.15,2013-03-05 23:37:00,
2013-03-05 18:42:00,47.3,43.3,29.66,West,270,4.0,16.0,86,15.16,,,99.99,Wunderground v.1.15,2013-03-05 23:42:00,
2013-03-05 18:47:00,47.4,43.1,29.66,WNW,295,6.0,6.0,85,15.16,,,99.99,Wunderground v.1.15,2013-03-05 23:47:00,
2013-03-05 18:52:00,47.7,43.1,29.66,SW,223,0.0,24.0,84,15.16,,,99.99,Wunderground v.1.15,2013-03-05 23:52:00,
2013-03-05 18:57:00,47.6,42.7,29.66,NW,304,1.0,4.0,83,15.16,,,99.99,Wunderground v.1.15,2013-03-05 23:57:00,
2013-03-05 19:02:00,47.9,41.4,29.65,WNW,291,2.0,16.0,78,14.40,,,99.99,Wunderground v.1.15,2013-03-06 00:02:00,
2013-03-05 19:07:00,47.7,41.5,29.65,West,265,2.0,5.0,79,15.16,,,99.99,Wunderground v.1.15,2013-03-06 00:07:00,
2013-03-05 19:12:00,47.4,41.2,29.65,West,272,11.0,13.0,79,15.16,,,99.99,Wunderground v.1.15,2013-03-06 00:12:00,
2013-03-05 19:18:00,47.3,41.1,29.66,West,268,0.0,5.0,79,15.16,,,99.99,Wunderground v.1.15,2013-03-06 00:18:00,
2013-03-05 19:23:00,47.0,41.5,29.66,West,274,1.0,8.0,81,15.16,,,99.99,Wunderground v.1.15,2013-03-06 00:23:00,
2013-03-05 19:28:00,46.8,41.6,29.66,WSW,239,1.0,10.0,82,15.16,,,99.99,Wunderground v.1.15,2013-03-06 00:28:00,
2013-03-05 19:33:00,46.8,41.0,29.67,West,281,7.0,12.0,80,14.40,,,99.99,Wunderground v.1.15,2013-03-06 00:33:00,
2013-03-05 19:38:00,46.7,41.5,29.67,NNW,330,0.0,3.0,82,14.40,,,99.99,Wunderground v.1.15,2013-03-06 00:38:00,
2013-03-05 19:43:00,46.5,41.0,29.67,SW,224,10.0,17.0,81,14.40,,,99.99,Wunderground v.1.15,2013-03-06 00:43:00,
2013-03-05 19:48:00,46.1,39.6,29.68,West,275,13.0,13.0,78,14.40,,,99.99,Wunderground v.1.15,2013-03-06 00:48:00,
2013-03-05 19:53:00,45.7,37.9,29.68,NW,318,10.0,21.0,74,15.16,,,99.99,Wunderground v.1.15,2013-03-06 00:53:00,
2013-03-05 19:58:00,45.2,38.4,29.68,WSW,240,3.0,6.0,77,15.16,,,99.99,Wunderground v.1.15,2013-03-06 00:58:00,
2013-03-05 20:03:00,44.8,37.4,29.70,WNW,285,8.0,12.0,75,15.16,,,99.99,Wunderground v.1.15,2013-03-06 01:03:00,
2013-03-05 20:09:00,44.3,35.8,29.70,West,281,10.0,18.0,72,15.16,,,99.99,Wunderground v.1.15,2013-03-06 01:09:00,
2013-03-05 20:14:00,44.2,35.7,29.70,West,270,5.0,5.0,72,14.40,,,99.99,Wunderground v.1.15,2013-03-06 01:14:00,
2013-03-05 20:19:00,43.8,35.0,29.70,North,6,2.0,16.0,71,14.40,,,99.99,Wunderground v.1.15,2013-03-06 01:19:00,
2013-03-05 20:26:00,43.5,35.1,29.70,NW,312,0.0,3.0,72,15.16,,,99.99,Wunderground v.1.15,2013-03-06 01:26:00,
2013-03-05 20:31:00,43.2,34.8,29.70,WNW,287,0.0,13.0,72,14.40,,,99.99,Wunderground v.1.15,2013-03-06 01:31:00,
2013-03-05 20:36:00,42.8,34.7,29.71,NE,54,0.0,7.0,73,14.40,,,99.99,Wunderground v.1.15,2013-03-06 01:36:00,
2013-03-05 20:41:00,42.5,34.5,29.71,West,275,7.0,12.0,73,14.40,,,99.99,Wunderground v.1.15,2013-03-06 01:41:00,
2013-03-05 20:46:00,42.3,34.6,29.71,NW,319,0.0,2.0,74,14.40,,,99.99,Wunderground v.1.15,2013-03-06 01:46:00,
2013-03-05 20:51:00,41.9,34.6,29.72,NW,326,6.0,14.0,75,14.40,,,99.99,Wunderground v.1.15,2013-03-06 01:51:00,
2013-03-05 20:57:00,41.6,34.9,29.72,WNW,289,0.0,4.0,77,15.16,,,99.99,Wunderground v.1.15,2013-03-06 01:57:00,
2013-03-05 21:02:00,41.2,34.5,29.72,West,270,2.0,8.0,77,15.16,,,99.99,Wunderground v.1.15,2013-03-06 02:02:00,
2013-03-05 21:07:00,40.8,35.1,29.72,NW,311,0.0,1.0,80,14.40,,,99.99,Wunderground v.1.15,2013-03-06 02:07:00,
2013-03-05 21:12:00,40.5,35.1,29.72,West,277,0.0,2.0,81,14.40,,,99.99,Wunderground v.1.15,2013-03-06 02:12:00,
2013-03-05 21:17:00,40.1,35.7,29.72,West,281,10.0,10.0,84,15.16,,,99.99,Wunderground v.1.15,2013-03-06 02:17:00,
2013-03-05 21:22:00,39.5,35.1,29.72,WNW,291,0.0,10.0,84,15.16,,,99.99,Wunderground v.1.15,2013-03-06 02:22:00,
2013-03-05 21:27:00,38.8,34.7,29.72,WNW,298,6.0,12.0,85,15.16,,,99.99,Wunderground v.1.15,2013-03-06 02:27:00,
2013-03-05 21:33:00,38.2,34.1,29.74,NNW,329,6.0,12.0,85,15.16,,,99.99,Wunderground v.1.15,2013-03-06 02:33:00,
2013-03-05 21:38:00,37.5,33.4,29.74,NW,312,0.0,5.0,85,15.16,,,99.99,Wunderground v.1.15,2013-03-06 02:38:00,
2013-03-05 21:43:00,36.9,32.5,29.74,West,270,3.0,13.0,84,14.40,,,99.99,Wunderground v.1.15,2013-03-06 02:43:00,
2013-03-05 21:48:00,36.3,32.5,29.75,NW,312,0.0,7.0,86,15.16,,,99.99,Wunderground v.1.15,2013-03-06 02:48:00,
2013-03-05 21:53:00,35.9,31.8,29.75,NW,319,0.0,7.0,85,15.16,,,99.99,Wunderground v.1.15,2013-03-06 02:53:00,
2013-03-05 21:58:00,35.6,31.5,29.75,WNW,301,0.0,8.0,85,15.16,,,99.99,Wunderground v.1.15,2013-03-06 02:58:00,
2013-03-05 22:04:00,35.2,30.9,29.75,West,270,0.0,2.0,84,15.16,,,99.99,Wunderground v.1.15,2013-03-06 03:04:00,
2013-03-05 22:09:00,34.7,30.4,29.75,NW,315,0.0,7.0,84,14.40,,,99.99,Wunderground v.1.15,2013-03-06 03:09:00,
2013-03-05 22:14:00,34.3,30.3,29.75,WNW,295,0.0,1.0,85,15.16,,,99.99,Wunderground v.1.15,2013-03-06 03:14:00,
2013-03-05 22:19:00,34.0,30.0,29.75,West,270,0.0,2.0,85,14.40,,,99.99,Wunderground v.1.15,2013-03-06 03:19:00,
2013-03-05 22:26:00,33.7,29.1,29.75,WSW,247,0.0,1.0,83,15.16,,,99.99,Wunderground v.1.15,2013-03-06 03:26:00,
2013-03-05 22:31:00,33.7,28.2,29.75,WNW,302,0.0,8.0,80,14.40,,,99.99,Wunderground v.1.15,2013-03-06 03:31:00,
2013-03-05 22:37:00,33.7,26.6,29.76,NE,51,7.0,7.0,75,15.16,,,99.99,Wunderground v.1.15,2013-03-06 03:37:00,
2013-03-05 22:42:00,33.7,25.6,29.76,NW,315,1.0,7.0,72,15.16,,,99.99,Wunderground v.1.15,2013-03-06 03:42:00,
2013-03-05 22:47:00,33.7,26.0,29.76,WNW,291,0.0,7.0,73,15.16,,,99.99,Wunderground v.1.15,2013-03-06 03:47:00,
2013-03-05 22:52:00,33.5,25.1,29.77,North,6,0.0,13.0,71,15.16,,,99.99,Wunderground v.1.15,2013-03-06 03:52:00,
2013-03-05 22:57:00,33.4,24.7,29.77,WNW,301,3.0,12.0,70,14.40,,,99.99,Wunderground v.1.15,2013-03-06 03:57:00,
2013-03-05 23:03:00,33.2,25.1,29.76,North,11,0.0,12.0,72,15.16,,,99.99,Wunderground v.1.15,2013-03-06 04:03:00,
2013-03-05 23:08:00,33.1,25.1,29.76,NW,308,0.0,10.0,72,15.16,,,99.99,Wunderground v.1.15,2013-03-06 04:08:00,
2013-03-05 23:13:00,33.1,24.7,29.76,WNW,302,0.0,11.0,71,14.40,,,99.99,Wunderground v.1.15,2013-03-06 04:13:00,
2013-03-05 23:18:00,32.9,23.8,29.75,West,270,9.0,13.0,69,15.16,,,99.99,Wunderground v.1.15,2013-03-06 04:18:00,
2013-03-05 23:24:00,32.8,24.4,29.75,South,189,2.0,13.0,71,15.16,,,99.99,Wunderground v.1.15,2013-03-06 04:24:00,
2013-03-05 23:29:00,32.8,23.7,29.75,NNW,337,1.0,9.0,69,14.40,,,99.99,Wunderground v.1.15,2013-03-06 04:29:00,
2013-03-05 23:34:00,32.7,24.7,29.75,West,275,6.0,9.0,72,14.40,,,99.99,Wunderground v.1.15,2013-03-06 04:34:00,
2013-03-05 23:39:00,32.5,24.5,29.75,SW,227,3.0,8.0,72,14.40,,,99.99,Wunderground v.1.15,2013-03-06 04:39:00,
2013-03-05 23:44:00,32.4,26.3,29.75,West,274,0.0,8.0,78,15.16,,,99.99,Wunderground v.1.15,2013-03-06 04:44:00,
2013-03-05 23:49:00,32.1,26.0,29.75,West,280,0.0,1.0,78,15.16,,,99.99,Wunderground v.1.15,2013-03-06 04:49:00,
2013-03-05 23:56:00,31.8,26.3,29.75,West,281,0.0,1.0,80,14.40,,,99.99,Wunderground v.1.15,2013-03-06 04:56:00,